Regional Weather Roundup
Issued by NWS

Home | Current Version | Previous Version | Graphics & Text | Print | Product List | Glossary On
Versions: 1 2 3 4 5 6 7 8 9 10 11 12 13 14 15 16 17 18 19 20 21 22 23 24 25 26 27 28 29 30 31 32 33 34 35 36 37 38 39 40 41 42 43 44 45 46 47 48 49 50
764
ASUS43 KMPX 011510
RWRMN
WEATHER ROUNDUP FOR MINNESOTA
NATIONAL WEATHER SERVICE TWIN CITIES/CHANHASSEN MN
900 AM CST WED MAR 01 2017


NOTE: "FAIR" INDICATES FEW OR NO CLOUDS BELOW 12,000 FEET WITH NO
SIGNIFICANT WEATHER AND/OR OBSTRUCTIONS TO VISIBILITY. N/A MEANS
CURRENT SKY AND/OR WEATHER CONDITIONS ARE NOT AVAILABLE.

MNZ060>063-068>070-011600-
   Twin Cities Metro

CITY           SKY/WX    TMP DP  RH WIND       PRES   REMARKS
TWIN CITIES    CLOUDY    28  21  75 N14       29.84R WCI  17
ST PAUL        CLOUDY    27  22  81 N17G26    29.85R WCI  14
CRYSTAL        CLOUDY    26  18  71 N16       29.84R WCI  14
BLAINE         CLOUDY    28  21  74 N15       29.84R WCI  17
LAKEVILLE      CLOUDY    27  25  93 N16       29.83R WCI  14
EDEN PRAIRIE   CLOUDY    28  21  75 N17       29.83R WCI  16
SOUTH ST PAUL  CLOUDY    28  22  78 NW14G20   29.83R WCI  17
LAKE ELMO      CLOUDY    28  23  80 N10G22    29.83R WCI  19
$$
MNZ001>005-007-008-013>017-022>024-027-028-011600-
   Northwest Minnesota

CITY           SKY/WX    TMP DP  RH WIND       PRES   REMARKS
BEMIDJI        MOSUNNY   15   8  73 NW6       29.91R WCI   6
HALLOCK        CLOUDY    12  10  92 N13       30.02R FOG     WCI  -3
ROSEAU         LGT SNOW  14   7  73 NW5       29.99R WCI   6
WARROAD        CLOUDY    14   7  73 N3        29.98S
THIEF RVR FALL PTSUNNY   14   7  73 NW14      29.98R WCI  -1
CROOKSTON      LGT SNOW  12  10  92 N10       30.02R WCI  -1
FOSSTON        SUNNY     18   9  68 NW7       29.95R WCI   8
DETROIT LAKES  SUNNY     21  19  93 NW9       29.94R WCI  11
MOORHEAD       CLOUDY    16  10  79 NW14      30.00R WCI   1
PARK RAPIDS    MOSUNNY   20   9  62 NW3       29.89R
MAHNOMEN       FAIR      18  12  79 NW10      29.95R WCI   6
$$
MNZ006-009>011-018-025>026-011600-
   North Central Minnesota

CITY           SKY/WX    TMP DP  RH WIND       PRES   REMARKS
BAUDETTE       CLOUDY    13   1  59 E3        29.95R
FLAG ISLAND    MOSUNNY   12   3  67 CALM      29.98R
INTL FALLS     MOSUNNY   11  -2  56 E12       29.93S WCI  -3
WASKISH        MOSUNNY   14   5  67 NE3       29.93R
BIG FORK       CLOUDY    14   3  62 NE3       29.90S
LONGVILLE      CLOUDY    18   9  68 N5        29.88F WCI  11
GRAND RAPIDS   CLOUDY    16   6  65 N8        29.90R WCI   5
CRANE LAKE     CLOUDY     9  -2  61 NE6       29.95S WCI  -1
ORR            CLOUDY    12   0  57 CALM      29.87S
COOK           MOSUNNY   12   1  62 NE5       29.90R WCI   4
WALKER         PTSUNNY   17   8  66 N5        29.89S WCI  10
$$
MNZ012-019>021-037-011600-
   Northeast Minnesota

CITY           SKY/WX    TMP DP  RH WIND       PRES   REMARKS
DULUTH         CLOUDY    17   8  67 N8        29.84R WCI   7
ELY            CLOUDY    10   0  61 NE6       29.89R WCI   1
HIBBING        MOSUNNY   14   4  64 N6        29.87S WCI   5
EVELETH        MOSUNNY   15   0  51 NE5       29.88S WCI   7
DULUTH HARBOR  CLOUDY    23  16  74 N13       29.90R WCI  11
TWO HARBORS    CLOUDY    19  10  68 N5        29.85R WCI  13
SILVER BAY     CLOUDY    18   5  57 N5        29.85S WCI  11
GRAND MARAIS     N/A     17  -1  45 E5        29.91  WCI  10
G MARAIS ARPRT CLOUDY     7  -6  56 N12       29.81S WCI  -9
$$
MNZ029>031-032-039>041-046>048-054>057-064-011600-
   West Central Minnesota

CITY           SKY/WX    TMP DP  RH WIND       PRES   REMARKS
FERGUS FALLS   SUNNY     19  16  86 NW16      30.00R WCI   5
WHEATON        SUNNY     21  16  79 W15       29.99R WCI   8
MORRIS         SUNNY     21  18  86 NW18      29.93R WCI   6
ALEXANDRIA     SUNNY     26  19  74 N9        29.90R WCI  17
ELBOW LAKE     FAIR      19  17  90 W14       29.95R WCI   6
WADENA         MOSUNNY   21  16  79 NW9       29.89S WCI  11
GLENWOOD       MOSUNNY   25  21  86 NW12      29.90R WCI  14
APPLETON       SUNNY     23  18  80 NW15      29.95R WCI  10
BENSON         MOSUNNY   27  19  74 N14       29.94R WCI  15
ORTONVILLE     SUNNY     21  16  79 NW15      29.96R WCI   8
MADISON        MOSUNNY   25  18  74 NW13      29.96R WCI  13
WILLMAR        FAIR      28  25  86 NW15      29.90S WCI  17
$$
MNZ033>034-036-042>043-049>051-058-059-011600-
   Central Minnesota

CITY           SKY/WX    TMP DP  RH WIND       PRES   REMARKS
ST CLOUD       CLOUDY    28  23  81 N8        29.87R WCI  20
SAUK CENTRE    FAIR      26  21  81 NW12      29.89R WCI  16
PAYNESVILLE    MOSUNNY   28  26  91 NW10      29.88S WCI  19
AITKIN         MOSUNNY   25  12  58 N8        29.86R WCI  16
PINE RIVER     MOSUNNY   19  12  73 N6        29.91F WCI  11
BRAINERD       SUNNY     24  17  74 N12       29.87S WCI  13
STAPLES        CLOUDY    21  16  79 NW7       29.89R WCI  13
LONG PRAIRIE   PTSUNNY   27  21  80 W12       29.88S WCI  16
LITTLE FALLS   PTSUNNY   28  21  74 NW5       29.88R WCI  23
LITCHFIELD     MOSUNNY   30  25  80 NW13      29.87R WCI  20
BUFFALO        CLOUDY    28  22  78 N10       29.87R WCI  19
MAPLE LAKE     CLOUDY    29  26  85 N10       29.87R WCI  20
HUTCHINSON     CLOUDY    31  26  82 NW14G21   29.87S WCI  21
$$
MNZ037-044-045-052-053-011600-
   East Central Minnesota

CITY           SKY/WX    TMP DP  RH WIND       PRES   REMARKS
PRINCETON      CLOUDY    28  21  74 NW10G16   29.87R WCI  19
MORA           CLOUDY    27  21  80 N3        29.87R
CAMBRIDGE      CLOUDY    27  18  69 N8        29.84R WCI  18
RUSH CITY      CLOUDY    25  19  80 N12       29.85R WCI  14
MOOSE LAKE     CLOUDY    21  12  68 NE8       29.85R WCI  12
HINCKLEY       PTSUNNY   25  19  80 N10       29.86R WCI  15
CLOQUET        CLOUDY    18   9  68 N5        29.85R WCI  11
MCGREGOR       CLOUDY    21  10  63 N8        29.87S WCI  12
$$
MNZ071>073-080-081-089-090-097-098-011600-
   Southwest Minnesota

CITY           SKY/WX    TMP DP  RH WIND       PRES   REMARKS
MONTEVIDEO     SUNNY     25  21  86 N12       29.95R WCI  14
GRANITE FALLS  SUNNY     27  23  85 W15       29.94R WCI  15
CANBY          SUNNY     26  20  78 W14       29.96R WCI  15
MARSHALL       SUNNY     26  21  81 NW17      29.93R WCI  13
REDWOOD FALLS  PTSUNNY   28  22  78 NW10      29.90S WCI  19
OLIVIA         PTSUNNY   30  27  86 NW12G22   29.89R WCI  21
PIPESTONE      MOSUNNY   27  19  74 NW16      29.92R WCI  14
WINDOM         SUNNY     27  25  93 NW17      29.88R WCI  14
WORTHINGTON    PTSUNNY   28  24  85 NW18      29.91R WCI  15
JACKSON        PTSUNNY   28  27  93 NW15G21   29.88R WCI  17
TRACY          MOSUNNY   27  23  85 NW14      29.92R WCI  16
SLAYTON        PTSUNNY   26  23  89 NW13G18   29.91R WCI  14
$$
MNZ065>067-074>077-082>085-091>093-011600-
   South Central Minnesota

CITY           SKY/WX    TMP DP  RH WIND       PRES   REMARKS
MANKATO          N/A     30  26  85 NW15      29.86R WCI  19
NEW ULM        CLOUDY    30  25  80 NW14G21   29.87R WCI  20
ST JAMES       CLOUDY    30  27  86 NW16G23   29.89R WCI  19
FAIRMONT       FLURRIES  31  27  85 NW18      29.87R WCI  19
GLENCOE        CLOUDY    31  28  88 N12G18    29.85R WCI  22
FARIBAULT      CLOUDY    27  25  93 NW15      29.83R WCI  15
WASECA         PTSUNNY   28  25  86 NW17G25   29.85R WCI  16
ALBERT LEA     LGT SNOW  27  27 100 NW15      29.81R WCI  15
$$
MNZ078>079-086>088-094>096-011600-
   Southeast Minnesota

CITY           SKY/WX    TMP DP  RH WIND       PRES   REMARKS
ROCHESTER      SNOW      26  24  92 N18       29.74R VSB 1/2 WCI  13
RED WING       CLOUDY    28  21  74 NW7G18    29.79R WCI  21
STANTON        CLOUDY    28  23  82 N16       29.81R WCI  16
WINONA         LGT SNOW  30  28  93 NW13      29.73R WCI  20
AUSTIN         LGT SNOW  27  23  86 NW18G24   29.77R WCI  13
PRESTON        CLOUDY    26  23  88 N17G24    29.71R FOG     WCI  13
$$
ABBREVIATIONS USED IN REMARKS
   TC - TEMPERATURES IN CELSIUS
  WCI - WIND CHILL INDEX
   HX - HEAT INDEX
  VSB - VISIBILITY
$$




USA.gov is the U.S. government's official web portal to all federal, state and local government web resources and services.